�N����,����,�~����,�C��,���x,�C��,����,���ϕ���,�ő�u�ԕ���,�ő厞����,���˗�,�I�_���x,�n�����x,�ő啗���N��,DTYPE
"23/09/05","00:10",0.0,26.6,89.1,1002.2,294.8,0.8,1.4,316.7,0.00,24.7,26.4,"00:04:40",1
"23/09/05","00:20",0.0,26.5,89.2,1001.9,341.8,1.1,2.5,335.1,0.00,24.6,26.3,"00:14:32",1
"23/09/05","00:30",0.0,26.4,89.5,1001.9,298.7,0.5,1.2,311.4,0.00,24.6,26.5,"00:27:52",1
"23/09/05","00:40",0.0,26.4,89.8,1001.9,337.6,1.2,1.9,338.3,0.00,24.6,26.2,"00:31:28",1
"23/09/05","00:50",0.0,26.3,90.0,1001.9,311.6,0.8,1.4,341.2,0.00,24.6,26.4,"00:41:28",1
"23/09/05","01:00",0.0,26.2,90.2,1002.2,298.1,0.6,1.1,320.5,0.00,24.5,26.3,"00:59:20",1
"23/09/05","01:10",0.0,26.0,90.4,1001.9,292.8,0.6,0.9,318.3,0.00,24.3,26.2,"01:00:32",1
"23/09/05","01:20",0.0,26.0,90.7,1001.9,311.7,1.1,2.0,321.8,0.00,24.4,26.3,"01:18:32",1
"23/09/05","01:30",0.0,26.1,90.8,1001.7,336.6,1.1,2.1,326.0,0.00,24.5,26.2,"01:24:32",1
"23/09/05","01:40",0.0,26.0,90.9,1001.9,323.8,1.2,1.7,352.9,0.00,24.4,26.0,"01:32:08",1
"23/09/05","01:50",0.0,26.0,91.1,1001.9,326.1,1.2,2.4,335.5,0.00,24.5,26.2,"01:46:24",1
"23/09/05","02:00",0.0,26.0,91.3,1002.2,287.6,0.8,1.3,263.0,0.00,24.5,26.2,"01:56:40",1
"23/09/05","02:10",0.0,26.1,91.3,1002.2,321.0,1.3,2.0,345.3,0.00,24.6,26.0,"02:07:28",1
"23/09/05","02:20",0.0,26.1,91.3,1002.2,323.6,1.1,2.6,350.7,0.00,24.6,26.3,"02:16:24",1
"23/09/05","02:30",0.0,26.1,91.3,1001.9,301.1,0.7,1.3,342.4,0.00,24.6,26.1,"02:23:52",1
"23/09/05","02:40",0.0,26.2,91.4,1001.9,324.9,1.0,1.8,343.1,0.00,24.7,26.2,"02:32:24",1
"23/09/05","02:50",0.0,26.2,91.3,1001.9,328.8,0.8,1.4,319.5,0.00,24.7,26.1,"02:40:16",1
"23/09/05","03:00",0.0,26.2,91.3,1002.2,304.1,0.7,1.6,318.4,0.00,24.7,26.1,"02:52:08",1
"23/09/05","03:10",0.0,26.2,91.3,1001.9,314.0,0.7,0.9,323.4,0.00,24.7,26.2,"03:01:36",1
"23/09/05","03:20",0.0,26.3,91.3,1001.9,271.7,0.6,1.3,263.9,0.00,24.8,26.0,"03:11:28",1
"23/09/05","03:30",0.0,26.3,91.3,1001.9,288.1,0.5,1.1,346.7,0.00,24.8,26.2,"03:20:02",1
"23/09/05","03:40",0.0,26.3,91.3,1001.9,325.4,0.7,1.7,337.5,0.00,24.8,26.0,"03:32:56",1
"23/09/05","03:50",0.0,26.2,91.3,1001.7,279.0,0.5,1.2,301.5,0.00,24.7,26.0,"03:41:44",1
"23/09/05","04:00",0.0,26.1,91.4,1001.7,300.2,1.0,1.8,327.7,0.00,24.6,26.0,"03:59:28",1
"23/09/05","04:10",0.0,26.1,91.4,1001.7,305.4,0.8,1.6,328.6,0.00,24.6,26.1,"04:03:28",1
"23/09/05","04:20",0.0,26.1,91.4,1001.9,317.1,0.8,1.3,334.9,0.00,24.6,25.9,"04:19:20",1
"23/09/05","04:30",0.0,26.1,91.4,1001.9,315.2,0.6,1.4,345.2,0.00,24.6,25.9,"04:20:56",1
"23/09/05","04:40",0.0,26.1,91.4,1001.7,328.5,0.8,1.4,335.4,0.00,24.6,26.0,"04:31:12",1
"23/09/05","04:50",0.0,26.1,91.5,1001.7,308.6,0.8,2.0,295.2,0.00,24.6,25.9,"04:43:28",1
"23/09/05","05:00",0.0,26.3,91.5,1001.9,142.7,0.8,1.9,102.4,0.00,24.8,26.1,"04:54:00",1
"23/09/05","05:10",0.0,26.5,91.0,1001.9,95.6,0.7,2.0,52.1,0.00,24.9,25.8,"05:02:40",1
"23/09/05","05:20",0.0,26.7,90.5,1002.2,117.0,0.5,1.3,77.3,0.00,25.1,26.0,"05:17:12",1
"23/09/05","05:30",0.0,26.7,90.0,1002.2,157.6,0.5,1.4,108.2,0.00,25.0,25.9,"05:24:48",1
"23/09/05","05:40",0.0,26.8,89.6,1001.9,172.4,0.5,1.1,119.5,0.00,25.0,25.9,"05:39:52",1
"23/09/05","05:50",0.0,26.9,89.1,1001.9,133.1,0.5,1.3,118.9,0.00,25.0,26.2,"05:40:32",1
"23/09/05","06:00",0.0,27.1,88.7,1002.2,175.9,0.5,1.1,158.0,0.00,25.1,26.1,"05:53:28",1
"23/09/05","06:10",0.0,27.1,88.2,1002.2,150.6,0.6,1.4,161.1,0.00,25.0,25.9,"06:03:04",1
"23/09/05","06:20",0.0,27.2,87.8,1002.2,176.4,0.8,1.8,193.0,0.00,25.0,26.0,"06:11:36",1
"23/09/05","06:30",0.0,27.3,87.3,1002.4,174.5,0.5,1.3,358.3,0.00,25.0,25.9,"06:20:02",1
"23/09/05","06:40",0.0,27.5,87.2,1002.6,341.1,1.0,1.6,339.8,0.00,25.2,26.0,"06:35:12",1
"23/09/05","06:50",0.0,27.3,87.1,1002.4,343.8,0.7,1.4,10.9,0.01,25.0,26.1,"06:43:44",1
"23/09/05","07:00",0.0,27.5,86.8,1002.9,143.5,0.3,1.1,130.8,0.01,25.1,25.7,"06:56:24",1
"23/09/05","07:10",0.0,27.7,86.4,1002.9,41.0,0.2,1.1,95.0,0.01,25.3,25.9,"07:05:04",1
"23/09/05","07:20",0.0,27.8,86.0,1002.9,81.7,0.2,1.1,128.3,0.02,25.3,26.1,"07:10:48",1
"23/09/05","07:30",0.0,28.8,85.6,1002.6,357.5,0.5,1.3,2.7,0.15,26.2,26.1,"07:26:40",1
"23/09/05","07:40",0.0,29.4,82.2,1002.4,38.9,0.6,1.7,4.3,0.09,26.1,26.1,"07:38:00",1
"23/09/05","07:50",0.0,29.2,80.4,1002.4,84.5,0.6,1.9,43.7,0.05,25.5,26.0,"07:40:08",1
"23/09/05","08:00",0.0,29.1,80.2,1002.2,40.9,0.3,1.3,56.3,0.04,25.4,26.0,"07:52:00",1
"23/09/05","08:10",0.0,28.9,80.3,1002.4,106.3,0.5,1.3,107.6,0.04,25.2,26.0,"08:07:52",1
"23/09/05","08:20",0.0,28.9,80.4,1002.4,197.4,0.2,0.9,126.1,0.04,25.2,26.0,"08:16:48",1
"23/09/05","08:30",0.0,30.5,80.4,1002.6,320.0,0.2,0.8,346.4,0.32,26.8,26.1,"08:25:28",1
"23/09/05","08:40",0.0,31.0,74.3,1003.8,155.3,1.1,3.1,200.1,0.34,25.9,26.1,"08:36:32",1
"23/09/05","08:50",0.0,30.6,73.4,1004.1,192.1,1.5,2.7,205.2,0.14,25.3,26.0,"08:44:16",1
"23/09/05","09:00",0.0,29.8,75.4,1003.8,179.7,1.0,2.9,226.2,0.09,25.0,26.3,"08:56:24",1
"23/09/05","09:10",0.0,29.8,75.5,1004.1,269.2,0.5,1.6,210.0,0.09,25.0,26.2,"09:01:20",1
"23/09/05","09:20",0.0,29.7,75.5,1003.8,181.3,0.6,1.8,219.9,0.05,24.9,26.3,"09:16:40",1
"23/09/05","09:30",0.0,30.0,75.2,1004.1,181.1,0.6,1.8,212.7,0.15,25.2,26.2,"09:25:20",1
"23/09/05","09:40",0.0,31.5,73.0,1004.5,114.3,0.5,1.2,138.7,0.39,26.1,26.3,"09:36:24",1
"23/09/05","09:50",0.0,32.7,68.3,1005.2,132.0,1.0,2.0,127.2,0.44,26.1,26.1,"09:44:24",1
"23/09/05","10:00",0.0,33.0,66.2,1005.5,138.9,1.1,2.4,141.2,0.47,25.9,26.4,"09:53:44",1
"23/09/05","10:10",0.0,33.1,65.8,1005.7,153.6,1.3,2.8,142.9,0.48,25.9,26.4,"10:08:24",1
"23/09/05","10:20",0.0,33.6,63.9,1006.0,140.2,1.1,2.9,140.6,0.51,25.9,26.4,"10:10:24",1
"23/09/05","10:30",0.0,33.1,62.2,1005.7,125.6,1.0,3.3,231.7,0.25,24.9,26.3,"10:29:36",1
"23/09/05","10:40",0.0,32.6,65.1,1005.7,176.6,1.3,3.5,210.2,0.25,25.2,26.6,"10:32:16",1
"23/09/05","10:50",0.0,33.4,62.0,1005.2,182.9,1.8,3.9,222.9,0.50,25.2,26.6,"10:40:16",1
"23/09/05","11:00",0.0,32.6,60.2,1005.5,191.7,2.5,5.1,221.1,0.27,23.9,26.7,"10:58:16",1
"23/09/05","11:10",0.0,33.5,58.2,1005.0,191.3,2.2,4.7,221.3,0.46,24.2,26.8,"11:04:00",1
"23/09/05","11:20",0.0,33.3,60.0,1004.8,185.0,2.2,5.2,223.1,0.37,24.5,26.6,"11:10:08",1
"23/09/05","11:30",0.0,32.8,58.6,1004.5,182.7,1.8,4.2,207.8,0.21,23.7,26.6,"11:24:56",1
"23/09/05","11:40",0.0,33.8,56.9,1004.3,182.7,2.3,5.6,198.7,0.52,24.1,26.7,"11:36:16",1
"23/09/05","11:50",0.0,33.2,57.5,1004.1,187.8,2.0,3.9,219.8,0.19,23.7,27.0,"11:44:32",1
"23/09/05","12:00",0.0,33.5,56.4,1004.1,214.6,2.1,5.1,189.8,0.34,23.7,27.0,"11:50:16",1
"23/09/05","12:10",0.0,33.2,57.8,1004.1,229.3,2.7,5.1,238.7,0.41,23.8,27.0,"12:04:16",1
"23/09/05","12:20",0.0,34.0,55.8,1004.5,229.7,2.2,4.7,219.2,0.53,24.0,26.9,"12:11:44",1
"23/09/05","12:30",0.0,34.4,53.1,1004.5,230.6,1.6,4.1,345.4,0.56,23.5,27.1,"12:29:20",1
"23/09/05","12:40",0.0,34.5,53.4,1004.5,286.8,1.7,4.1,237.8,0.49,23.7,27.1,"12:36:56",1
"23/09/05","12:50",0.0,34.9,51.3,1004.5,233.7,1.6,3.6,238.1,0.55,23.4,27.2,"12:45:28",1
"23/09/05","13:00",0.0,34.6,51.3,1004.3,210.3,1.8,4.5,213.5,0.48,23.1,27.2,"12:55:36",1
"23/09/05","13:10",0.0,33.6,52.6,1003.6,243.8,1.8,3.9,233.7,0.19,22.6,27.2,"13:08:24",1
"23/09/05","13:20",0.0,34.3,54.6,1003.6,282.3,1.3,3.7,337.4,0.43,23.9,27.4,"13:15:04",1
"23/09/05","13:30",0.0,35.1,52.6,1003.8,310.8,1.2,3.2,334.5,0.47,24.0,27.3,"13:27:12",1
"23/09/05","13:40",0.0,35.4,49.5,1004.1,288.5,1.3,4.1,215.2,0.49,23.3,27.7,"13:38:24",1
"23/09/05","13:50",0.0,34.9,50.5,1003.8,285.2,1.3,3.4,350.4,0.33,23.1,27.6,"13:49:44",1
"23/09/05","14:00",0.0,35.2,51.3,1003.8,208.7,1.7,4.0,235.4,0.37,23.7,27.8,"13:54:48",1
"23/09/05","14:10",0.0,35.6,49.0,1003.8,268.3,1.1,3.2,127.1,0.43,23.3,27.5,"14:00:56",1
"23/09/05","14:20",0.0,35.7,48.5,1003.6,225.9,0.8,2.0,227.1,0.31,23.2,27.8,"14:19:28",1
"23/09/05","14:30",0.0,36.0,48.6,1003.8,326.8,0.7,1.9,226.4,0.39,23.5,27.7,"14:27:52",1
"23/09/05","14:40",0.0,34.5,52.2,1003.4,221.2,1.0,3.7,219.0,0.08,23.3,27.8,"14:31:20",1
"23/09/05","14:50",0.0,34.6,49.7,1002.9,336.3,1.7,4.2,344.6,0.29,22.6,27.7,"14:46:08",1
"23/09/05","15:00",0.0,35.1,51.9,1002.2,214.0,1.5,3.7,203.5,0.24,23.8,27.6,"14:55:04",1
"23/09/05","15:10",0.0,35.5,48.3,1002.9,210.0,1.7,3.6,195.5,0.32,22.9,27.7,"15:02:40",1
"23/09/05","15:20",0.0,35.6,46.9,1002.9,239.9,1.2,3.9,232.9,0.25,22.6,27.8,"15:19:44",1
"23/09/05","15:30",0.0,35.4,48.3,1002.9,244.7,1.6,4.2,235.7,0.22,22.9,27.8,"15:24:16",1
"23/09/05","15:40",0.0,35.3,48.0,1002.6,230.2,2.0,4.1,209.9,0.23,22.7,27.7,"15:37:44",1
"23/09/05","15:50",0.0,35.2,47.9,1002.6,225.2,1.5,4.2,203.4,0.21,22.5,27.7,"15:41:36",1
"23/09/05","16:00",0.0,35.3,49.5,1002.6,239.8,2.0,3.9,223.4,0.19,23.2,27.9,"15:50:08",1
"23/09/05","16:10",0.0,35.0,48.5,1002.4,244.5,1.7,3.3,230.0,0.17,22.6,27.9,"16:00:08",1
"23/09/05","16:20",0.0,35.0,49.2,1002.4,310.1,1.2,2.6,331.7,0.14,22.8,27.8,"16:18:00",1
"23/09/05","16:30",0.0,34.7,48.9,1002.4,239.3,1.8,4.0,226.1,0.12,22.4,28.0,"16:21:12",1
"23/09/05","16:40",0.0,33.9,51.1,1002.2,248.9,1.7,4.0,230.7,0.03,22.4,27.8,"16:34:32",1
"23/09/05","16:50",0.0,33.7,52.7,1001.5,233.7,1.6,3.3,234.7,0.06,22.7,27.9,"16:43:20",1
"23/09/05","17:00",0.0,33.9,53.1,1001.7,232.8,1.6,4.0,200.9,0.06,23.0,27.8,"16:57:04",1
"23/09/05","17:10",0.0,33.8,52.8,1001.7,230.9,1.6,3.6,234.1,0.04,22.9,27.9,"17:09:12",1
"23/09/05","17:20",0.0,33.6,54.4,1001.5,240.7,0.7,1.7,220.2,0.02,23.2,27.8,"17:10:08",1
"23/09/05","17:30",0.0,33.4,54.5,1001.5,244.6,1.0,2.0,236.4,0.02,23.0,27.8,"17:29:52",1
"23/09/05","17:40",0.0,33.1,55.2,1001.5,239.6,1.6,3.9,234.9,0.01,22.9,27.7,"17:31:20",1
"23/09/05","17:50",0.0,32.4,57.6,1001.0,243.1,1.5,3.3,238.4,0.00,23.0,27.7,"17:43:52",1
"23/09/05","18:00",0.0,31.9,59.1,1001.2,238.7,1.7,4.1,234.9,0.00,23.0,27.7,"17:58:08",1
"23/09/05","18:10",0.0,31.5,60.7,1000.5,233.4,2.0,4.0,233.7,0.00,23.0,27.8,"18:01:28",1
"23/09/05","18:20",0.0,31.1,62.5,1000.5,302.9,1.1,2.7,225.5,0.00,23.1,27.6,"18:10:08",1
"23/09/05","18:30",0.0,30.5,64.1,1000.3,342.8,1.5,3.1,355.4,0.00,23.0,27.7,"18:22:40",1
"23/09/05","18:40",0.0,30.2,65.3,1000.3,323.7,0.8,2.1,340.2,0.00,23.0,27.5,"18:31:20",1
"23/09/05","18:50",0.0,30.0,66.3,1000.3,311.9,1.0,1.9,349.1,0.00,23.1,27.8,"18:44:48",1
"23/09/05","19:00",0.0,29.7,66.8,1000.3,319.1,1.5,3.1,345.0,0.00,22.9,27.4,"18:51:36",1
"23/09/05","19:10",0.0,29.6,66.9,1000.5,292.6,1.3,2.9,348.1,0.00,22.8,27.2,"19:08:00",1
"23/09/05","19:20",0.0,29.3,67.3,1001.0,299.4,1.0,2.6,320.0,0.00,22.7,27.4,"19:13:44",1
"23/09/05","19:30",0.0,29.1,67.5,1000.8,296.3,1.1,2.6,339.0,0.00,22.5,27.2,"19:24:16",1
"23/09/05","19:40",0.0,29.1,66.3,1001.2,308.3,1.6,3.7,346.3,0.00,22.2,27.2,"19:38:24",1
"23/09/05","19:50",0.0,29.2,64.9,1001.5,277.1,1.2,5.1,306.3,0.00,22.0,27.4,"19:40:16",1
"23/09/05","20:00",0.0,29.2,64.6,1001.5,285.0,1.1,4.0,238.5,0.00,21.9,27.2,"19:50:40",1
"23/09/05","20:10",0.0,29.1,65.4,1002.2,336.6,1.2,2.8,339.8,0.00,22.0,27.2,"20:02:08",1
"23/09/05","20:20",0.0,28.9,66.2,1002.2,336.9,1.3,3.6,355.5,0.00,22.0,27.0,"20:11:28",1
"23/09/05","20:30",0.0,28.6,67.2,1001.9,329.9,1.1,2.2,316.8,0.00,22.0,27.2,"20:24:24",1
"23/09/05","20:40",0.0,28.3,68.5,1002.4,328.8,0.3,1.1,321.5,0.00,22.0,27.1,"20:36:24",1
"23/09/05","20:50",0.0,27.8,70.3,1001.9,245.8,0.6,1.4,204.0,0.00,21.9,27.0,"20:45:44",1
"23/09/05","21:00",0.0,28.0,71.1,1002.2,265.8,1.0,2.2,238.9,0.00,22.3,27.0,"20:52:56",1
"23/09/05","21:10",0.0,28.0,71.4,1001.9,329.6,1.0,1.8,345.5,0.00,22.4,26.8,"21:02:24",1
"23/09/05","21:20",0.0,27.6,72.9,1001.9,344.7,0.7,1.4,330.6,0.00,22.3,27.0,"21:17:20",1
"23/09/05","21:30",0.0,27.2,74.6,1001.9,351.9,1.0,1.7,335.8,0.00,22.3,27.1,"21:23:52",1
"23/09/05","21:40",0.0,26.8,75.7,1001.9,25.4,0.3,1.4,352.4,0.00,22.2,26.7,"21:30:16",1
"23/09/05","21:50",0.0,26.5,77.5,1001.9,350.3,0.7,1.4,21.0,0.00,22.3,26.8,"21:47:20",1
"23/09/05","22:00",0.0,26.1,78.7,1002.2,302.4,0.5,0.9,280.5,0.00,22.1,26.7,"21:59:28",1
"23/09/05","22:10",0.0,25.9,80.3,1001.9,331.3,1.3,2.6,344.6,0.00,22.3,26.7,"22:08:56",1
"23/09/05","22:20",0.0,25.8,80.9,1001.9,304.6,0.8,2.7,351.4,0.00,22.3,26.8,"22:10:24",1
"23/09/05","22:30",0.0,25.8,81.0,1002.2,307.0,0.8,1.7,235.5,0.00,22.3,26.7,"22:21:04",1
"23/09/05","22:40",0.0,25.8,81.5,1002.2,348.0,0.8,1.9,345.6,0.00,22.4,26.7,"22:36:56",1
"23/09/05","22:50",0.0,25.5,82.5,1002.4,332.5,1.6,2.8,314.8,0.00,22.3,26.7,"22:45:04",1
"23/09/05","23:00",0.0,25.4,82.7,1002.4,306.6,0.8,2.2,330.1,0.00,22.3,26.6,"22:50:16",1
"23/09/05","23:10",0.0,25.4,82.8,1002.2,311.3,0.8,1.4,338.1,0.00,22.3,26.5,"23:09:20",1
"23/09/05","23:20",0.0,25.4,82.9,1002.4,320.2,1.2,2.2,325.9,0.00,22.3,26.6,"23:14:32",1
"23/09/05","23:30",0.0,25.4,83.0,1002.4,302.6,0.7,1.2,322.9,0.00,22.3,26.5,"23:26:08",1
"23/09/05","23:40",0.0,25.4,83.1,1002.2,301.6,1.0,1.9,353.4,0.00,22.4,26.4,"23:39:44",1
"23/09/05","23:50",0.0,25.4,83.2,1002.4,316.6,1.0,1.7,343.3,0.00,22.4,26.4,"23:48:56",1
"23/09/05","24:00",0.0,25.4,83.3,1002.4,314.7,1.1,1.7,315.9,0.00,22.4,26.4,"23:53:20",1
